This is the latest recevied weather packets stored in our database for station/object K0SDS. If no packets are shown the sender has not sent any weather packets the latest 10 day(s).
| Time | Temp. | Humidity | Pressure | Rain* | Wind** | Luminosity | Snow |
|---|---|---|---|---|---|---|---|
| 1787435739 | 30° C | 55% | 1018.2 hPa | 0 mm | - | 336 W/m² | - |
| 1787435435 | 30° C | 58% | 1018.1 hPa | 0 mm | - | 355 W/m² | - |
| 1787435132 | 30.56° C | 56% | 1018.1 hPa | 0 mm | - | 370 W/m² | - |
| 1787434827 | 30.56° C | 56% | 1018.1 hPa | 0 mm | - | 382 W/m² | - |
| 1787434524 | 30° C | 55% | 1018.3 hPa | 0 mm | - | 411 W/m² | - |
| 1787434219 | 30° C | 57% | 1018.4 hPa | 0 mm | - | 416 W/m² | - |
| 1787433914 | 30° C | 56% | 1018.3 hPa | 0 mm | - | 401 W/m² | - |
| 1787433609 | 29.44° C | 56% | 1018.4 hPa | 0 mm | - | 425 W/m² | - |
| 1787433304 | 30° C | 55% | 1018.3 hPa | 0 mm | - | 431 W/m² | - |
| 1787433001 | 30° C | 57% | 1018.6 hPa | 0 mm | - | 439 W/m² | - |
| 1787432697 | 29.44° C | 57% | 1018.7 hPa | 0 mm | - | 461 W/m² | - |
| 1787432396 | 30° C | 56% | 1018.8 hPa | 0 mm | - | 462 W/m² | - |
| 1787432091 | 30° C | 56% | 1018.5 hPa | 0 mm | - | 465 W/m² | - |
| 1787431790 | 29.44° C | 53% | 1018.6 hPa | 0 mm | - | 473 W/m² | - |
| 1787431486 | 29.44° C | 51% | 1018.9 hPa | 0 mm | - | 487 W/m² | - |
| 1787431182 | 30° C | 49% | 1018.8 hPa | 0 mm | - | 499 W/m² | - |
| 1787430878 | 30° C | 49% | 1018.9 hPa | 0 mm | - | 513 W/m² | - |
| 1787430578 | 30° C | 54% | 1018.8 hPa | 0 mm | - | 564 W/m² | - |
| 1787430275 | 30° C | 52% | 1019 hPa | 0 mm | - | 626 W/m² | - |
| 1787429971 | 29.44° C | 55% | 1019.1 hPa | 0 mm | - | 592 W/m² | - |
| 1787429666 | 30° C | 53% | 1019 hPa | 0 mm | - | 549 W/m² | - |
| 1787429361 | 30° C | 55% | 1019.3 hPa | 0 mm | - | 583 W/m² | - |
| 1787429057 | 29.44° C | 56% | 1019.1 hPa | 0 mm | - | 588 W/m² | - |
| 1787428752 | 29.44° C | 57% | 1019.1 hPa | 0 mm | - | 570 W/m² | - |
| 1787428448 | 29.44° C | 57% | 1019.1 hPa | 0 mm | - | 582 W/m² | - |
* Rain latest hour (hover to see other rain measurements)
** Current wind speed in m/s (hover to see current wind gust speed)